Terug naar catalogus

EXPLORER 38 DEB

LostMEO
NORAD 3848·DEBRIS·🇺🇸 United States

Gelanceerd Jul 4, 1968 vanaf Vandenberg Space Force Base

Loading…

Volgende Passages (komende 24 uur)

TLE

VerouderdSource: Space-Track

Epoch: Aug 13, 2024, 07:04 UTC

1 03848U 68055C   24226.29490897 -.00000010  00000-0  00000-0 0  9993
2 03848 120.8322 182.0702 0017060 226.2180 133.7010  6.42500615216810

Volg EXPLORER 38 DEB in realtime met AllMySat

Download on the App Store